Location: Boiro
(42.6475°N, 8.8834°W)
Time: 12:17:18
(UTC+01:00)

Envisat - Pass Details

Date: 29 October 2021
Orbit: 764 x 766 km, 98.2° (Epoch: 07 December)

Event Time Altitude Azimuth Distance (km) Brightness Sun altitude
Rises 06:33:20 0° 28° (NNE) 3,240 6.7 -28.5°
Reaches altitude 10° 06:36:18 10° 46° (NE) 2,308 6.1 -28.0°
Maximum altitude 06:39:54 19° 92° (E) 1,749 5.6 -27.3°
Drops below altitude 10° 06:43:29 10° 137° (SE) 2,295 5.9 -26.7°
Sets 06:46:24 0° 155° (SSE) 3,215 6.5 -26.1°
